Theta_e
331 326 331 326 313 313 304 303 311 310 311 318 320 318 318 318 316 313 337 340 339 340 344 345 347 347 346 346 345 345 345 344 343 343 343 344 342 340 339 339 339 341 340 338 338 337 336 334 333
328 324 329 321 310 305 304 308 307 311 317 321 320 319 317 316 326 330 333 340 340 341 343 344 344 346 346 345 344 343 345 343 341 341 340 340 342 340 338 338 338 339 335 335 335 339 336 334 334
324 322 321 314 310 305 305 310 311 315 319 317 316 321 318 318 327 332 339 341 340 342 343 344 344 347 346 345 344 342 342 342 342 340 338 336 339 339 337 337 337 338 334 333 334 339 336 334 333
320 321 322 309 306 309 310 313 314 315 318 319 318 314 323 331 330 336 341 342 340 341 344 343 346 347 345 345 344 344 342 341 343 341 337 337 336 336 336 336 335 338 335 333 334 336 334 333 332
319 315 310 308 308 310 313 315 316 315 315 316 318 313 319 330 336 338 340 340 340 341 344 345 344 345 345 344 343 344 343 342 342 342 339 338 336 335 335 335 334 334 335 334 332 334 334 332 331
310 311 305 304 307 311 314 317 316 315 316 317 316 313 320 333 334 338 340 339 341 340 342 344 338 341 343 343 343 343 342 340 340 342 341 340 337 334 335 334 334 333 333 334 331 332 333 332 331
307 305 300 305 307 310 313 318 315 315 314 315 319 311 321 329 335 338 340 340 341 341 341 342 343 340 337 339 339 340 341 339 338 340 340 339 337 336 335 335 334 332 332 333 333 332 333 332 330
311 306 300 303 305 307 315 315 317 316 315 321 322 313 316 327 336 338 339 339 340 340 341 341 343 342 340 340 333 335 337 337 335 336 337 333 333 333 333 332 332 333 333 332 333 333 332 332 330
316 301 297 300 305 309 315 313 316 319 317 319 321 320 327 332 336 335 335 336 337 337 338 341 340 341 340 339 334 331 332 332 331 331 330 329 334 334 332 330 332 333 331 334 334 333 332 332 329
306 299 299 304 307 310 315 314 315 314 315 316 319 325 329 332 333 331 331 331 333 335 337 338 341 339 340 338 337 337 336 333 334 334 334 335 335 335 332 327 328 330 329 333 333 333 332 328 326
304 299 303 303 309 312 314 313 316 313 312 316 317 322 326 329 331 330 330 331 332 335 336 338 338 341 339 339 339 339 337 336 333 334 334 334 333 334 333 332 329 331 325 330 330 330 329 327 326
300 304 303 305 310 312 311 315 313 314 315 318 320 324 326 327 328 330 329 330 331 333 335 337 338 336 339 339 338 337 336 336 335 333 333 333 332 333 332 330 332 333 331 330 330 329 329 327 327
301 301 304 306 310 312 312 311 312 313 318 318 319 319 323 325 327 330 331 332 333 332 334 336 338 336 335 336 336 337 335 334 336 335 334 332 331 332 331 330 330 330 330 330 329 329 327 327 327
300 301 303 305 305 309 307 309 311 312 317 317 317 318 320 323 325 327 329 330 331 333 334 336 337 339 338 335 336 335 336 336 335 335 335 333 332 332 331 330 329 329 330 329 329 327 326 326 325
302 296 300 302 303 302 305 301 303 311 313 313 315 316 318 321 324 326 328 329 330 332 333 334 336 338 338 337 335 336 334 334 334 334 336 335 333 332 331 330 329 329 329 328 328 327 326 325 324
296 296 290 297 300 303 302 291 300 305 307 308 311 314 316 319 321 324 326 328 330 331 332 334 334 336 337 337 338 334 336 334 334 336 333 335 334 333 332 331 330 330 328 328 326 325 324 324 324
295 288 289 291 299 299 299 294 299 303 303 303 306 308 309 313 318 322 323 325 325 326 327 329 332 333 334 337 338 337 335 334 334 336 335 332 334 334 333 332 332 331 330 328 327 325 324 323 324
288 289 290 291 293 296 295 295 299 303 302 303 305 306 306 307 312 317 320 320 320 320 322 325 326 331 333 335 337 337 335 332 332 333 332 332 331 334 333 333 332 332 331 329 329 327 326 325 324
291 291 289 292 295 294 294 294 297 301 302 302 304 305 306 307 310 312 313 316 317 318 319 319 322 327 330 331 332 333 332 331 330 331 332 331 331 331 333 332 332 332 330 330 329 328 326 325 326
293 289 289 292 296 295 293 292 296 299 300 302 303 303 304 306 308 310 312 315 315 315 315 317 319 324 327 330 331 332 331 332 331 331 330 331 330 330 330 331 331 332 331 330 329 328 324 325 326
291 289 288 288 294 296 294 291 293 297 300 301 303 304 305 305 306 308 309 311 313 313 315 316 317 319 324 328 329 329 329 329 328 330 331 331 330 329 329 330 330 332 330 328 327 328 325 320 322
286 292 291 289 288 283 293 282 291 295 296 299 301 302 304 305 306 307 308 308 310 314 318 317 317 318 321 326 326 326 324 322 325 327 330 332 334 329 329 329 330 329 329 328 326 325 324 322 319
289 293 291 290 288 287 287 284 289 294 293 296 298 301 303 304 305 305 307 309 311 315 316 317 317 317 319 321 324 325 324 324 324 324 328 330 332 333 331 331 330 329 328 327 327 325 323 324 321
295 292 291 291 288 281 285 284 286 290 293 295 298 299 301 303 305 306 309 311 311 315 315 315 314 314 315 316 318 320 321 322 323 324 325 327 328 329 330 330 330 330 329 329 328 327 324 323 323
293 290 283 280 280 280 289 285 288 294 296 296 296 298 301 302 303 305 306 308 309 311 312 314 315 314 315 318 318 318 320 321 321 323 324 323 324 325 325 327 327 327 328 328 328 327 327 325 322
290 289 283 277 279 282 288 282 288 296 298 299 299 299 300 302 304 306 307 308 309 309 309 310 310 310 309 312 317 322 323 321 322 322 323 323 324 324 326 327 325 325 325 325 326 325 325 326 325
290 285 292 284 284 280 285 289 294 297 296 297 298 299 300 302 304 304 305 307 308 307 307 307 306 306 305 306 308 309 311 314 320 320 321 322 322 322 322 323 323 323 324 324 323 321 321 322 323
293 295 284 286 277 276 282 285 287 292 294 296 297 298 300 302 302 303 303 303 304 305 304 304 304 303 303 304 305 305 305 305 306 307 307 307 308 308 309 310 312 315 319 321 320 319 319 319 321
289 287 288 289 285 279 278 283 294 294 296 296 298 299 301 302 302 302 302 302 302 302 302 302 302 302 302 303 303 303 303 303 304 304 304 304 305 304 305 305 306 307 309 311 313 316 318 318 317
293 290 290 283 282 284 283 285 296 296 297 298 298 300 301 303 303 303 302 300 300 300 300 300 300 299 299 300 301 300 300 301 301 301 301 302 302 303 303 303 304 304 305 306 307 308 309 310 313
Wind_Speed
21 15 6 5 7 3 5 5 2 4 3 5 2 6 11 8 10 6 6 8 10 11 14 12 9 11 12 11 8 6 11 9 9 9 9 9 11 11 11 9 10 9 11 9 10 11 10 10 10
16 15 6 6 8 7 8 7 5 4 6 4 3 2 3 7 7 9 10 6 11 10 11 13 11 13 13 12 9 4 9 11 9 8 7 7 8 10 10 8 9 9 8 7 6 9 9 9 9
19 6 6 5 5 2 6 4 9 7 7 2 2 2 3 5 5 11 9 12 11 10 9 14 11 14 14 13 11 8 6 8 11 9 8 5 7 8 8 6 8 8 7 6 6 8 8 8 7
8 4 5 9 5 4 5 7 10 10 6 2 0 5 5 5 5 7 11 12 11 10 11 13 11 12 12 11 11 11 8 4 9 12 8 7 5 4 5 6 7 4 7 5 4 7 6 5 5
5 5 8 8 5 5 5 7 9 9 8 8 5 7 4 6 5 8 12 11 11 10 12 13 11 11 11 11 9 8 9 11 10 10 12 7 6 3 4 5 3 2 4 4 4 4 4 4 3
6 3 8 10 10 6 5 8 7 7 6 8 6 5 7 9 10 9 10 11 11 11 10 12 10 10 10 9 8 7 7 7 7 10 11 12 7 5 3 5 5 4 4 2 4 2 2 1 1
7 7 12 10 9 9 7 6 8 7 8 8 3 6 7 10 8 9 11 11 10 10 10 9 11 10 7 8 8 7 7 5 5 8 11 10 11 8 5 3 5 6 5 4 2 3 2 2 1
5 5 11 11 11 12 8 7 2 5 6 5 2 6 8 10 10 10 10 9 10 10 11 10 9 11 10 10 7 7 7 6 3 1 10 9 9 9 8 6 7 5 6 4 5 4 5 5 4
3 6 11 15 14 12 10 9 5 3 2 6 6 4 9 14 12 10 10 9 9 9 9 7 8 9 7 8 9 6 5 6 6 5 6 7 7 9 10 9 6 8 8 6 6 6 7 5 5
7 9 13 13 11 13 10 10 9 6 9 9 8 7 8 12 12 11 11 11 11 11 10 10 9 8 7 6 10 9 9 8 9 9 9 8 9 8 4 3 6 5 9 7 7 7 7 6 8
5 10 14 5 11 7 10 10 6 9 10 11 13 13 11 11 12 12 13 12 13 12 10 11 10 9 11 6 6 4 3 5 6 10 8 8 6 5 4 4 5 6 8 7 8 8 8 10 7
8 10 6 4 3 5 10 9 9 13 8 7 2 10 12 13 13 13 12 12 11 11 11 11 11 10 10 6 6 7 5 5 6 8 10 7 5 6 6 5 6 6 4 7 6 4 6 8 8
12 11 7 6 5 7 4 10 12 12 12 5 4 6 11 12 12 12 11 10 10 11 11 12 12 11 9 8 6 7 6 6 8 8 9 9 8 6 7 7 7 6 7 7 6 6 6 6 8
3 10 9 6 10 6 7 13 10 11 12 10 10 10 10 11 12 11 11 11 12 11 11 12 13 13 12 9 9 8 8 9 8 8 9 12 8 7 7 7 7 7 8 8 7 7 7 6 7
6 6 11 12 8 8 6 18 24 16 9 14 15 13 12 12 11 13 12 12 12 11 12 12 13 13 14 14 11 9 8 9 9 9 12 12 12 11 10 7 7 8 7 9 8 8 8 7 7
6 6 8 7 14 6 8 17 16 22 19 20 17 17 17 16 15 13 12 12 12 11 12 12 10 13 15 13 11 8 9 9 9 9 9 12 13 13 10 8 8 8 7 7 8 8 7 8 8
9 9 15 7 12 9 15 13 10 9 11 20 21 20 18 17 17 15 13 12 11 11 12 12 12 14 15 14 11 11 12 10 10 10 9 12 14 14 11 9 8 9 7 8 8 8 9 8 8
12 15 11 13 7 14 14 20 12 4 11 15 15 18 19 18 19 17 16 14 13 12 11 11 10 12 13 10 10 9 9 10 9 9 10 13 11 14 11 9 10 9 8 8 8 9 8 9 8
4 12 14 12 5 7 17 20 20 18 18 16 16 15 15 17 16 17 16 13 12 12 11 12 12 12 9 8 9 9 10 10 8 10 14 11 12 14 12 10 11 11 10 10 10 10 11 9 8
19 14 14 4 4 6 13 20 19 19 21 21 21 19 18 17 17 16 14 13 15 14 13 14 14 13 11 8 8 9 9 9 10 10 11 13 12 12 12 12 12 11 9 12 12 12 10 9 6
19 20 15 10 2 10 13 23 22 20 24 23 22 21 20 20 19 17 17 16 14 14 13 13 13 14 12 12 8 8 8 7 7 8 10 12 14 13 13 13 12 11 10 9 12 12 15 10 8
20 14 17 15 6 9 7 14 16 11 18 15 18 20 19 20 18 16 14 13 12 9 8 10 11 12 12 13 10 12 10 10 9 9 8 8 13 13 13 13 13 12 9 11 11 10 11 11 11
11 13 12 14 14 11 18 11 12 12 18 15 15 13 15 16 15 16 14 11 10 6 6 8 9 10 11 10 11 9 11 8 8 7 8 7 7 10 13 14 14 14 11 11 14 11 11 9 10
6 8 7 6 7 10 18 17 19 17 18 13 10 10 14 14 12 12 8 4 7 7 7 8 8 9 9 9 11 12 12 10 7 7 5 5 5 7 10 11 11 11 12 12 12 12 12 11 10
17 15 6 7 8 14 5 15 26 5 8 6 6 8 9 8 10 10 11 9 8 8 8 6 7 9 6 9 10 11 11 11 11 9 6 7 6 6 8 9 9 9 11 11 11 11 10 11 12
20 16 7 10 11 11 14 12 15 4 9 13 12 7 9 9 7 9 9 6 6 5 5 4 3 3 3 3 3 4 7 6 7 8 7 6 6 6 7 7 9 11 12 11 10 10 10 11 10
13 18 20 15 1 2 11 19 18 16 12 7 9 12 13 11 6 7 6 7 6 6 5 4 4 3 3 3 2 3 2 1 2 3 4 4 5 4 5 6 7 9 9 10 11 7 8 9 10
24 11 13 12 9 17 15 21 16 3 5 8 14 15 13 9 7 7 6 6 5 5 5 4 4 4 4 4 3 3 3 3 3 2 3 3 4 5 6 7 8 8 9 9 10 7 7 9 9
16 16 10 9 12 11 14 14 18 17 14 12 11 9 10 10 7 7 7 6 6 6 6 5 4 4 4 3 3 4 4 4 4 3 4 4 4 5 5 6 7 8 8 8 8 9 9 10 10
24 26 22 10 15 12 17 17 7 2 6 8 12 12 7 6 8 9 8 8 7 7 6 5 4 4 3 3 3 3 3 3 4 4 4 5 5 5 5 6 6 7 8 8 9 9 9 10 11
Wind_Direction
316 326 299 251 244 233 127 112 42 134 182 73 50 322 9 21 1 32 140 100 132 136 128 153 156 139 123 122 115 122 124 117 113 112 111 113 125 120 114 119 120 133 111 93 110 109 96 94 93
310 321 240 273 260 229 102 123 156 115 73 96 121 222 229 83 64 108 140 141 140 137 140 143 143 138 130 131 131 124 134 130 129 125 130 124 126 124 124 127 133 113 112 105 86 116 106 103 96
312 281 275 274 283 322 103 155 115 125 135 163 170 320 17 68 78 139 95 145 141 140 144 117 141 137 140 143 143 142 135 140 141 134 135 128 156 137 125 139 142 137 123 100 103 117 111 110 103
324 234 218 254 222 65 99 123 131 148 157 185 275 138 118 45 116 108 135 147 148 146 121 128 137 134 141 148 152 152 144 172 146 128 117 115 118 116 152 165 166 136 142 133 101 111 104 110 114
262 251 262 250 203 127 126 121 156 166 148 153 197 108 89 109 121 128 147 156 150 150 125 146 136 138 144 152 159 156 141 128 155 143 140 141 134 156 144 164 184 135 141 166 119 103 108 104 113
289 276 246 234 214 162 164 157 172 172 144 123 189 135 94 119 151 142 152 160 154 151 137 137 143 143 148 154 153 147 141 138 143 151 148 147 158 174 180 193 186 205 205 174 166 162 125 137 87
285 270 260 274 206 188 177 173 196 181 159 161 109 146 105 155 142 156 163 160 157 155 149 152 164 157 150 159 161 154 149 147 123 159 160 167 154 155 174 188 209 217 221 208 179 215 247 247 256
280 272 258 238 238 212 145 186 268 232 152 96 202 168 154 144 148 155 163 161 170 166 163 171 164 171 172 168 165 165 166 163 138 132 169 170 170 173 178 193 213 222 232 218 228 221 236 251 251
276 247 239 237 233 217 141 209 162 38 216 215 165 68 101 128 148 157 169 176 181 174 163 205 176 180 181 173 165 173 177 166 155 151 145 168 199 189 172 198 186 210 230 231 222 235 249 262 259
233 234 240 253 240 236 184 217 186 208 199 195 174 122 131 149 165 170 181 190 193 189 187 190 199 180 174 191 151 192 183 195 197 194 178 205 212 206 213 166 176 216 233 234 227 233 246 245 260
210 240 243 278 281 274 203 212 195 222 223 220 199 172 165 169 180 187 198 197 197 202 194 192 198 208 190 191 177 188 174 204 200 208 206 209 220 195 205 202 193 222 213 239 214 226 230 237 241
247 243 266 312 240 253 218 228 210 227 221 16 149 145 171 181 191 197 202 202 194 200 201 195 202 200 215 195 194 202 191 201 201 204 210 215 214 217 216 212 210 215 221 221 244 232 238 250 255
236 250 258 243 265 252 316 239 234 223 239 156 171 181 182 190 195 200 202 203 202 206 203 197 198 205 207 214 207 207 195 209 213 210 205 210 215 217 220 219 224 203 229 241 238 236 246 244 249
10 258 244 262 237 240 260 248 231 232 241 211 205 207 208 204 198 197 202 206 208 207 209 204 202 203 195 207 210 214 214 212 217 219 211 212 219 216 217 222 222 229 213 230 232 240 238 239 244
258 265 233 239 236 240 253 257 243 238 246 243 227 225 222 214 209 211 203 212 210 211 214 212 208 207 211 200 213 213 214 219 223 222 226 216 215 224 221 220 222 224 226 228 234 235 241 249 251
232 237 233 212 211 218 202 259 236 230 235 242 241 234 229 226 226 220 219 211 208 215 210 211 209 214 215 219 201 213 215 217 219 212 228 236 224 225 226 228 227 227 225 227 229 233 236 237 239
210 246 221 230 207 215 203 264 264 211 241 240 239 239 239 237 234 228 230 227 224 224 220 220 212 214 220 219 220 204 220 222 220 230 212 216 235 223 227 231 231 230 228 227 229 232 236 242 241
222 222 237 228 184 225 229 249 256 248 259 249 245 241 242 241 236 235 229 230 237 240 238 222 221 216 216 216 218 222 209 226 225 227 228 225 222 233 225 229 234 228 230 229 229 235 238 239 245
280 225 234 227 225 251 241 253 257 251 249 254 245 238 237 238 245 248 246 241 230 223 225 220 218 218 211 205 208 218 217 224 228 230 228 222 223 226 235 228 231 228 228 232 234 235 236 241 243
243 243 231 237 238 234 268 262 263 254 250 244 240 246 248 249 246 240 241 237 231 233 237 229 220 215 207 211 211 220 223 219 220 226 232 227 221 218 228 237 233 231 229 229 233 233 239 245 237
229 229 234 239 197 249 281 274 254 246 238 238 239 242 246 243 245 245 241 236 237 245 238 234 227 223 213 210 209 219 232 239 226 218 216 219 224 220 220 234 238 233 231 228 235 240 235 239 217
236 232 245 250 232 251 190 282 272 258 223 216 234 238 239 244 246 248 253 257 244 228 242 238 235 230 225 212 217 221 221 229 229 228 224 219 201 208 222 230 233 234 234 229 225 231 236 233 237
247 236 208 221 236 268 247 264 264 230 243 222 201 224 234 236 237 239 239 241 246 242 211 230 230 228 226 221 222 221 232 246 253 252 232 220 213 215 222 223 224 234 237 238 241 228 232 227 228
188 160 163 201 224 244 225 223 265 241 254 251 230 220 221 229 238 245 254 254 223 206 214 229 231 233 231 228 228 231 238 237 244 246 249 245 233 231 225 234 239 236 236 234 236 239 227 233 236
192 169 182 204 202 241 203 218 247 335 284 326 309 271 207 240 232 232 235 213 219 206 215 222 228 235 229 239 239 240 241 249 250 245 244 242 236 235 236 231 233 240 243 246 244 243 239 223 228
208 216 206 216 220 257 208 237 236 251 285 270 229 216 216 230 230 225 224 222 228 201 218 214 203 193 223 235 251 261 245 242 244 245 253 255 251 254 259 250 249 247 250 252 249 249 246 246 244
194 213 225 273 145 295 233 251 274 268 247 253 253 237 240 241 238 232 249 236 201 182 181 188 159 133 98 81 92 82 60 34 286 310 290 279 322 334 336 299 273 265 262 260 260 255 255 254 251
222 189 201 221 224 230 238 238 245 155 215 252 252 254 259 256 210 218 189 183 181 171 154 142 125 117 103 95 83 76 60 47 36 44 31 0 339 325 317 306 301 297 294 284 273 272 274 272 264
211 220 223 222 231 234 252 249 245 254 255 248 243 251 258 257 207 200 192 180 173 158 152 138 129 119 97 76 72 67 53 39 46 47 30 13 349 353 337 327 314 303 298 294 289 275 265 259 263
214 212 201 211 201 230 257 255 263 67 14 323 268 265 265 250 210 206 187 171 169 170 156 141 115 94 61 49 48 55 43 33 36 26 10 0 351 343 340 336 329 327 323 321 314 307 305 300 294